| time (UTC) | temp F | wind direction | speed MPH | gust MPH | rain 1hr in | rain 24hr in | rain mn in | humidity % | barometer mb |
| 20260901071502 | 70 | 240 | 0.0 | 1.0 | 0.20 | 0.92 | 0.92 | 87 | 1016.8 |
| 20260901071003 | 70 | 240 | 1.0 | 2.0 | 0.29 | 0.90 | 0.90 | 87 | 1016.6 |
| 20260901070503 | 70 | 168 | 0.0 | 0.0 | 0.37 | 0.89 | 0.89 | 86 | 1016.5 |
| 20260901070003 | 70 | 145 | 0.0 | 0.0 | 0.39 | 0.85 | 0.85 | 86 | 1016.7 |
| 20260901065503 | 71 | 145 | 0.0 | 0.0 | 0.38 | 0.80 | 0.80 | 86 | 1016.8 |
| 20260901065003 | 71 | 145 | 0.0 | 0.0 | 0.39 | 0.78 | 0.78 | 86 | 1016.7 |
| 20260901064503 | 71 | 145 | 0.0 | 0.0 | 0.43 | 0.77 | 0.77 | 86 | 1016.7 |
| 20260901064004 | 71 | 145 | 0.0 | 0.0 | 0.48 | 0.77 | 0.77 | 86 | 1016.7 |
| 20260901063503 | 71 | 145 | 0.0 | 0.0 | 0.53 | 0.76 | 0.76 | 86 | 1016.7 |
| 20260901063004 | 71 | 145 | 0.0 | 0.0 | 0.56 | 0.75 | 0.75 | 85 | 1016.7 |
| 20260901062503 | 71 | 203 | 0.0 | 0.0 | 0.57 | 0.73 | 0.73 | 84 | 1016.6 |
| 20260901062003 | 71 | 182 | 0.0 | 0.0 | 0.61 | 0.73 | 0.73 | 83 | 1016.5 |
| 20260901061503 | 71 | 182 | 0.0 | 1.0 | 0.63 | 0.72 | 0.72 | 82 | 1016.6 |
| 20260901060503 | 71 | 182 | 0.0 | 2.0 | 0.47 | 0.53 | 0.53 | 81 | 1016.9 |
| 20260901060002 | 71 | 182 | 1.0 | 2.0 | 0.43 | 0.48 | 0.48 | 81 | 1016.9 |
| 20260901055503 | 71 | 188 | 0.0 | 0.0 | 0.41 | 0.43 | 0.43 | 81 | 1017.1 |
| 20260901055003 | 71 | 186 | 0.0 | 0.0 | 0.38 | 0.39 | 0.39 | 81 | 1017.2 |
| 20260901054003 | 72 | 153 | 0.0 | 2.0 | 0.29 | 0.29 | 0.29 | 80 | 1017.2 |
| 20260901053003 | 72 | 234 | 0.0 | 0.0 | 0.19 | 0.19 | 0.19 | 79 | 1017.4 |
| 20260901052503 | 72 | 188 | 0.0 | 0.0 | 0.16 | 0.16 | 0.16 | 79 | 1017.4 |
| 20260901052004 | 72 | 188 | 0.0 | 0.0 | 0.12 | 0.12 | 0.12 | 79 | 1017.5 |
| 20260901051502 | 72 | 188 | 0.0 | 0.0 | 0.09 | 0.09 | 0.09 | 78 | 1017.5 |
| 20260901051003 | 72 | 188 | 0.0 | 0.0 | 0.07 | 0.07 | 0.07 | 78 | 1017.4 |
| 20260901050503 | 72 | 188 | 0.0 | 0.0 | 0.06 | 0.06 | 0.06 | 78 | 1017.4 |
| 20260901045502 | 72 | 188 | 0.0 | 0.0 | 0.02 | 0.02 | 0.02 | 77 | 1017.5 |
| 20260901045004 | 72 | 192 | 0.0 | 0.0 | 0.01 | 0.01 | 0.01 | 77 | 1017.4 |
| 20260901044505 | 72 | 195 | 0.0 | 0.0 | 0.01 | 0.01 | 0.01 | 77 | 1017.3 |
| 20260901044003 | 72 | 195 | 0.0 | 0.0 | 0.00 | 0.00 | 0.00 | 77 | 1017.3 |
| 20260901043504 | 72 | 195 | 0.0 | 0.0 | 0.00 | 0.00 | 0.00 | 76 | 1017.3 |
| 20260901043004 | 72 | 195 | 0.0 | 0.0 | 0.00 | 0.00 | 0.00 | 76 | 1017.3 |
| 20260901042503 | 72 | 195 | 0.0 | 0.0 | 0.00 | 0.00 | 0.00 | 76 | 1017.3 |
| 20260901042003 | 72 | 167 | 0.0 | 0.0 | 0.00 | 0.00 | 0.00 | 76 | 1017.2 |
| 20260901041005 | 72 | 167 | 0.0 | 0.0 | 0.00 | 0.00 | 0.00 | 76 | 1017.3 |
| 20260901040502 | 72 | 167 | 0.0 | 0.0 | 0.00 | 0.00 | 0.00 | 76 | 1017.2 |
| 20260901040003 | 72 | 145 | 0.0 | 0.0 | 0.00 | 0.00 | 0.00 | 76 | 1017.3 |
| 20260901035502 | 72 | 145 | 0.0 | 0.0 | 0.00 | 0.00 | 0.00 | 76 | 1017.4 |
| 20260901035003 | 72 | 145 | 0.0 | 0.0 | 0.00 | 0.00 | 0.00 | 75 | 1017.5 |
| 20260901034504 | 72 | 145 | 0.0 | 0.0 | 0.00 | 0.00 | 0.00 | 75 | 1017.5 |
| 20260901034003 | 72 | 109 | 0.0 | 0.0 | 0.00 | 0.00 | 0.00 | 75 | 1017.6 |
| 20260901033003 | 72 | 182 | 0.0 | 0.0 | 0.00 | 0.00 | 0.00 | 75 | 1017.7 |
| 20260901032003 | 72 | 182 | 0.0 | 0.0 | 0.00 | 0.00 | 0.00 | 75 | 1017.8 |
| 20260901031504 | 72 | 182 | 0.0 | 0.0 | 0.00 | 0.00 | 0.00 | 74 | 1017.8 |
| 20260901031003 | 72 | 188 | 0.0 | 0.0 | 0.00 | 0.00 | 0.00 | 74 | 1017.9 |
| 20260901030503 | 72 | 188 | 0.0 | 0.0 | 0.00 | 0.00 | 0.00 | 74 | 1017.9 |
| 20260901030004 | 72 | 203 | 0.0 | 0.0 | 0.00 | 0.00 | 0.00 | 74 | 1017.9 |
| 20260901025002 | 72 | 190 | 0.0 | 0.0 | 0.00 | 0.00 | 0.00 | 74 | 1017.9 |
| 20260901024503 | 72 | 172 | 0.0 | 0.0 | 0.00 | 0.00 | 0.00 | 74 | 1018.0 |
| 20260901023504 | 72 | 182 | 0.0 | 0.0 | 0.00 | 0.00 | 0.00 | 74 | 1018.1 |
| 20260901022502 | 72 | 172 | 0.0 | 0.0 | 0.00 | 0.00 | 0.00 | 74 | 1018.1 |
| 20260901022002 | 72 | 172 | 0.0 | 0.0 | 0.00 | 0.00 | 0.00 | 74 | 1018.1 |
| 20260901021503 | 72 | 172 | 0.0 | 0.0 | 0.00 | 0.00 | 0.00 | 74 | 1018.1 |
| 20260901021003 | 72 | 172 | 0.0 | 1.0 | 0.00 | 0.00 | 0.00 | 74 | 1018.2 |
| 20260901020503 | 72 | 172 | 0.0 | 1.0 | 0.00 | 0.00 | 0.00 | 73 | 1018.2 |
| 20260901020003 | 72 | 172 | 1.0 | 2.0 | 0.00 | 0.01 | 0.00 | 73 | 1018.1 |
| 20260901015003 | 72 | 197 | 1.0 | 3.0 | 0.00 | 0.01 | 0.00 | 73 | 1018.1 |
| 20260901014504 | 72 | 217 | 0.0 | 2.0 | 0.00 | 0.02 | 0.00 | 73 | 1018.2 |
| 20260901014003 | 72 | 189 | 1.0 | 3.0 | 0.00 | 0.02 | 0.00 | 73 | 1018.2 |
| 20260901013503 | 72 | 172 | 0.0 | 0.0 | 0.00 | 0.02 | 0.00 | 73 | 1018.3 |
| 20260901013003 | 72 | 172 | 0.0 | 0.0 | 0.00 | 0.02 | 0.00 | 73 | 1018.3 |
| 20260901012003 | 72 | 172 | 0.0 | 0.0 | 0.00 | 0.02 | 0.00 | 73 | 1018.3 |
| 20260901011502 | 72 | 172 | 0.0 | 2.0 | 0.00 | 0.02 | 0.00 | 73 | 1018.2 |
| 20260901011003 | 72 | 172 | 1.0 | 2.0 | 0.00 | 0.02 | 0.00 | 73 | 1018.2 |
| 20260901010503 | 72 | 192 | 0.0 | 2.0 | 0.00 | 0.02 | 0.00 | 73 | 1018.2 |
| 20260901010003 | 72 | 199 | 0.0 | 2.0 | 0.00 | 0.02 | 0.00 | 73 | 1018.1 |
| 20260901005503 | 72 | 199 | 1.0 | 3.0 | 0.00 | 0.02 | 0.00 | 73 | 1018.1 |
| 20260901004504 | 72 | 185 | 0.0 | 3.0 | 0.00 | 0.02 | 0.00 | 73 | 1018.2 |
| 20260901004003 | 72 | 229 | 1.0 | 3.0 | 0.00 | 0.02 | 0.00 | 73 | 1018.1 |
| 20260901003503 | 72 | 191 | 0.0 | 0.0 | 0.00 | 0.02 | 0.00 | 73 | 1018.1 |
| 20260901003003 | 72 | 196 | 0.0 | 1.0 | 0.00 | 0.02 | 0.00 | 73 | 1018.1 |
| 20260901002504 | 72 | 192 | 1.0 | 2.0 | 0.00 | 0.02 | 0.00 | 73 | 1018.1 |
| 20260901002004 | 72 | 201 | 0.0 | 2.0 | 0.00 | 0.02 | 0.00 | 73 | 1018.0 |
| 20260901001003 | 72 | 186 | 0.0 | 2.0 | 0.00 | 0.02 | 0.00 | 73 | 1017.9 |
| 20260901000503 | 73 | 203 | 0.0 | 2.0 | 0.00 | 0.02 | 0.00 | 73 | 1017.9 |
| 20260901000004 | 73 | 199 | 1.0 | 3.0 | 0.00 | 0.02 | 0.00 | 73 | 1018.0 |
| 20260831235503 | 73 | 245 | 0.0 | 2.0 | 0.00 | 0.02 | 0.00 | 72 | 1018.1 |
| 20260831235003 | 73 | 193 | 0.0 | 2.0 | 0.00 | 0.02 | 0.00 | 72 | 1018.1 |
| 20260831234503 | 73 | 182 | 1.0 | 3.0 | 0.00 | 0.02 | 0.00 | 72 | 1018.1 |
| 20260831234003 | 73 | 205 | 0.0 | 0.0 | 0.00 | 0.02 | 0.00 | 72 | 1018.2 |
| 20260831233504 | 73 | 201 | 0.0 | 0.0 | 0.00 | 0.02 | 0.00 | 72 | 1018.2 |
| 20260831233003 | 73 | 177 | 0.0 | 2.0 | 0.00 | 0.02 | 0.00 | 72 | 1018.3 |
| 20260831232503 | 73 | 203 | 0.0 | 1.0 | 0.00 | 0.02 | 0.00 | 72 | 1018.3 |
| 20260831232003 | 73 | 207 | 0.0 | 2.0 | 0.00 | 0.02 | 0.00 | 72 | 1018.3 |
| 20260831231503 | 73 | 155 | 0.0 | 3.0 | 0.00 | 0.02 | 0.00 | 72 | 1018.4 |
| 20260831230504 | 74 | 339 | 0.0 | 2.0 | 0.00 | 0.02 | 0.00 | 72 | 1018.5 |
| 20260831230003 | 74 | 172 | 0.0 | 1.0 | 0.00 | 0.02 | 0.00 | 72 | 1018.3 |
| 20260831225503 | 74 | 221 | 0.0 | 1.0 | 0.00 | 0.02 | 0.00 | 72 | 1018.4 |
| 20260831224504 | 74 | 217 | 0.0 | 3.0 | 0.00 | 0.02 | 0.00 | 71 | 1018.3 |
| 20260831223504 | 74 | 194 | 1.0 | 3.0 | 0.00 | 0.02 | 0.00 | 71 | 1018.2 |
| 20260831221504 | 75 | 228 | 0.0 | 2.0 | 0.00 | 0.02 | 0.00 | 71 | 1018.5 |
| 20260831221005 | 75 | 215 | 1.0 | 3.0 | 0.00 | 0.02 | 0.00 | 71 | 1018.5 |
| 20260831220503 | 75 | 197 | 1.0 | 3.0 | 0.00 | 0.02 | 0.00 | 70 | 1018.4 |
| 20260831220003 | 75 | 209 | 1.0 | 3.0 | 0.00 | 0.02 | 0.00 | 71 | 1018.5 |
| 20260831215503 | 75 | 237 | 1.0 | 3.0 | 0.00 | 0.02 | 0.00 | 71 | 1018.4 |
| 20260831215003 | 75 | 167 | 1.0 | 3.0 | 0.00 | 0.02 | 0.00 | 71 | 1018.4 |
| 20260831214503 | 75 | 208 | 1.0 | 3.0 | 0.00 | 0.02 | 0.00 | 71 | 1018.3 |
| 20260831214003 | 75 | 194 | 1.0 | 3.0 | 0.00 | 0.02 | 0.00 | 71 | 1018.4 |
| 20260831213503 | 75 | 171 | 1.0 | 3.0 | 0.00 | 0.02 | 0.00 | 71 | 1018.4 |
| 20260831213003 | 75 | 209 | 0.0 | 3.0 | 0.00 | 0.02 | 0.00 | 71 | 1018.4 |
| 20260831212504 | 75 | 209 | 1.0 | 6.0 | 0.00 | 0.02 | 0.00 | 70 | 1018.4 |
| 20260831212003 | 75 | 186 | 0.0 | 3.0 | 0.00 | 0.02 | 0.00 | 70 | 1018.5 |
| 20260831211503 | 75 | 239 | 0.0 | 1.0 | 0.00 | 0.02 | 0.00 | 70 | 1018.5 |
| 20260831211004 | 75 | 217 | 1.0 | 3.0 | 0.00 | 0.02 | 0.00 | 70 | 1018.5 |
| 20260831210003 | 75 | 226 | 1.0 | 2.0 | 0.00 | 0.02 | 0.00 | 70 | 1018.2 |
| 20260831205004 | 75 | 184 | 0.0 | 1.0 | 0.00 | 0.02 | 0.00 | 71 | 1018.4 |
| 20260831204504 | 75 | 182 | 0.0 | 3.0 | 0.00 | 0.02 | 0.00 | 70 | 1018.5 |
| 20260831204003 | 75 | 168 | 0.0 | 3.0 | 0.00 | 0.02 | 0.00 | 71 | 1018.6 |
| 20260831203504 | 75 | 207 | 2.0 | 3.0 | 0.00 | 0.02 | 0.00 | 70 | 1018.6 |
| 20260831203003 | 75 | 168 | 0.0 | 3.0 | 0.00 | 0.02 | 0.00 | 71 | 1018.7 |
| 20260831202503 | 75 | 156 | 0.0 | 1.0 | 0.00 | 0.02 | 0.00 | 71 | 1018.6 |
| 20260831202003 | 76 | 228 | 0.0 | 0.0 | 0.00 | 0.02 | 0.00 | 71 | 1018.7 |
| 20260831200503 | 76 | 95 | 0.0 | 2.0 | 0.00 | 0.02 | 0.00 | 69 | 1018.7 |
| 20260831200004 | 77 | 32 | 0.0 | 0.0 | 0.00 | 0.02 | 0.00 | 70 | 1018.7 |
| 20260831195503 | 77 | 35 | 0.0 | 0.0 | 0.00 | 0.02 | 0.00 | 69 | 1018.8 |
| 20260831195003 | 77 | 72 | 0.0 | 0.0 | 0.00 | 0.02 | 0.00 | 69 | 1018.8 |
| 20260831194502 | 78 | 98 | 0.0 | 0.0 | 0.00 | 0.02 | 0.00 | 68 | 1018.8 |
| 20260831193503 | 78 | 162 | 0.0 | 0.0 | 0.00 | 0.02 | 0.00 | 68 | 1018.8 |
| 20260831193004 | 78 | 132 | 0.0 | 0.0 | 0.00 | 0.02 | 0.00 | 68 | 1018.7 |
| 20260831192504 | 78 | 46 | 0.0 | 2.0 | 0.00 | 0.02 | 0.00 | 70 | 1018.7 |
| 20260831191504 | 76 | 328 | 0.0 | 0.0 | 0.00 | 0.02 | 0.00 | 71 | 1019.0 |
| 20260831191004 | 76 | 321 | 0.0 | 0.0 | 0.00 | 0.02 | 0.00 | 70 | 1019.0 |
| 20260831185503 | 76 | 303 | 0.0 | 2.0 | 0.00 | 0.02 | 0.00 | 70 | 1019.2 |
| 20260831184503 | 76 | 349 | 1.0 | 3.0 | 0.00 | 0.02 | 0.00 | 70 | 1019.2 |
| 20260831184003 | 76 | 338 | 0.0 | 2.0 | 0.00 | 0.02 | 0.00 | 70 | 1019.3 |
| 20260831183503 | 76 | 299 | 0.0 | 0.0 | 0.00 | 0.02 | 0.00 | 70 | 1019.4 |
| 20260831183003 | 76 | 354 | 0.0 | 0.0 | 0.00 | 0.02 | 0.00 | 70 | 1019.5 |
| 20260831182503 | 77 | 354 | 0.0 | 0.0 | 0.00 | 0.02 | 0.00 | 69 | 1019.6 |
| 20260831182004 | 77 | 8 | 0.0 | 0.0 | 0.00 | 0.02 | 0.00 | 68 | 1019.6 |
| 20260831181503 | 77 | 190 | 0.0 | 1.0 | 0.00 | 0.02 | 0.00 | 68 | 1019.7 |
| 20260831181003 | 78 | 186 | 0.0 | 0.0 | 0.00 | 0.02 | 0.00 | 68 | 1019.7 |
| 20260831180503 | 78 | 1 | 0.0 | 0.0 | 0.00 | 0.02 | 0.00 | 67 | 1019.6 |
| 20260831175504 | 78 | 14 | 1.0 | 3.0 | 0.00 | 0.02 | 0.00 | 68 | 1019.6 |
| 20260831175005 | 78 | 5 | 0.0 | 5.0 | 0.00 | 0.02 | 0.00 | 67 | 1019.5 |
| 20260831174503 | 78 | 313 | 1.0 | 3.0 | 0.00 | 0.02 | 0.00 | 68 | 1019.5 |
| 20260831174004 | 78 | 24 | 0.0 | 1.0 | 0.00 | 0.02 | 0.00 | 67 | 1019.4 |
| 20260831173504 | 78 | 100 | 0.0 | 3.0 | 0.00 | 0.02 | 0.00 | 69 | 1019.4 |
| 20260831173003 | 78 | 341 | 1.0 | 3.0 | 0.00 | 0.02 | 0.00 | 67 | 1019.4 |
| 20260831172503 | 77 | 353 | 1.0 | 3.0 | 0.00 | 0.02 | 0.00 | 69 | 1019.5 |
| 20260831172005 | 77 | 184 | 1.0 | 3.0 | 0.00 | 0.02 | 0.00 | 69 | 1019.6 |
| 20260831171504 | 77 | 316 | 2.0 | 5.0 | 0.00 | 0.02 | 0.00 | 68 | 1019.6 |
| 20260831171003 | 77 | 338 | 1.0 | 5.0 | 0.00 | 0.02 | 0.00 | 68 | 1019.7 |
| 20260831170503 | 77 | 324 | 2.0 | 5.0 | 0.00 | 0.02 | 0.00 | 68 | 1019.7 |
| 20260831170003 | 76 | 342 | 0.0 | 3.0 | 0.00 | 0.02 | 0.00 | 69 | 1019.8 |
| 20260831165503 | 76 | 348 | 0.0 | 2.0 | 0.00 | 0.02 | 0.00 | 70 | 1019.7 |
| 20260831165004 | 76 | 349 | 0.0 | 2.0 | 0.00 | 0.02 | 0.00 | 68 | 1019.8 |
| 20260831164503 | 75 | 191 | 0.0 | 2.0 | 0.00 | 0.02 | 0.00 | 70 | 1019.9 |
| 20260831163504 | 75 | 192 | 0.0 | 3.0 | 0.00 | 0.02 | 0.00 | 70 | 1019.9 |
| 20260831163003 | 75 | 193 | 0.0 | 2.0 | 0.00 | 0.02 | 0.00 | 69 | 1020.0 |
| 20260831162504 | 75 | 191 | 1.0 | 5.0 | 0.00 | 0.02 | 0.00 | 69 | 1020.0 |
| 20260831162003 | 75 | 192 | 0.0 | 3.0 | 0.00 | 0.02 | 0.00 | 70 | 1019.9 |
| 20260831161003 | 75 | 190 | 1.0 | 3.0 | 0.00 | 0.02 | 0.00 | 70 | 1019.9 |
| 20260831160503 | 75 | 190 | 0.0 | 5.0 | 0.00 | 0.02 | 0.00 | 69 | 1019.9 |
| 20260831160003 | 75 | 191 | 1.0 | 2.0 | 0.00 | 0.02 | 0.00 | 69 | 1019.9 |
| 20260831155504 | 75 | 190 | 0.0 | 3.0 | 0.00 | 0.02 | 0.00 | 69 | 1019.9 |
| 20260831155003 | 75 | 190 | 1.0 | 3.0 | 0.00 | 0.02 | 0.00 | 70 | 1020.0 |
| 20260831154004 | 75 | 190 | 1.0 | 3.0 | 0.00 | 0.02 | 0.00 | 70 | 1019.9 |
| 20260831153504 | 75 | 190 | 0.0 | 2.0 | 0.00 | 0.02 | 0.00 | 70 | 1019.9 |
| 20260831153003 | 74 | 191 | 1.0 | 3.0 | 0.00 | 0.02 | 0.00 | 69 | 1020.0 |
| 20260831152503 | 74 | 190 | 1.0 | 3.0 | 0.00 | 0.02 | 0.00 | 70 | 1020.0 |
| 20260831152004 | 74 | 189 | 1.0 | 3.0 | 0.00 | 0.02 | 0.00 | 70 | 1020.0 |
| 20260831151503 | 74 | 190 | 0.0 | 2.0 | 0.00 | 0.02 | 0.00 | 70 | 1020.1 |
| 20260831151003 | 74 | 234 | 1.0 | 3.0 | 0.00 | 0.02 | 0.00 | 70 | 1020.1 |
| 20260831150503 | 74 | 356 | 0.0 | 2.0 | 0.00 | 0.02 | 0.00 | 71 | 1020.1 |
| 20260831145504 | 74 | 308 | 1.0 | 3.0 | 0.00 | 0.02 | 0.00 | 70 | 1020.1 |
| 20260831145003 | 74 | 61 | 0.0 | 2.0 | 0.00 | 0.02 | 0.00 | 72 | 1020.3 |
| 20260831144504 | 73 | 119 | 0.0 | 2.0 | 0.00 | 0.02 | 0.00 | 72 | 1020.2 |
| 20260831143503 | 73 | 329 | 0.0 | 1.0 | 0.00 | 0.02 | 0.00 | 71 | 1020.2 |
| 20260831143003 | 73 | 313 | 1.0 | 3.0 | 0.00 | 0.02 | 0.00 | 71 | 1020.2 |
| 20260831142503 | 72 | 324 | 0.0 | 3.0 | 0.00 | 0.02 | 0.00 | 71 | 1020.1 |
| 20260831142004 | 72 | 26 | 0.0 | 3.0 | 0.00 | 0.02 | 0.00 | 71 | 1020.1 |
| 20260831141503 | 72 | 52 | 0.0 | 3.0 | 0.00 | 0.02 | 0.00 | 72 | 1020.0 |
| 20260831141003 | 72 | 311 | 0.0 | 3.0 | 0.00 | 0.02 | 0.00 | 72 | 1020.0 |
| 20260831140503 | 72 | 47 | 0.0 | 3.0 | 0.00 | 0.02 | 0.00 | 72 | 1020.1 |
| 20260831140003 | 71 | 41 | 1.0 | 3.0 | 0.00 | 0.02 | 0.00 | 73 | 1020.1 |
| 20260831135503 | 71 | 309 | 0.0 | 2.0 | 0.00 | 0.02 | 0.00 | 73 | 1020.1 |
| 20260831135003 | 71 | 189 | 0.0 | 2.0 | 0.00 | 0.02 | 0.00 | 73 | 1020.1 |
| 20260831134003 | 71 | 352 | 1.0 | 5.0 | 0.00 | 0.02 | 0.00 | 73 | 1019.9 |
| 20260831133503 | 71 | 343 | 1.0 | 3.0 | 0.00 | 0.02 | 0.00 | 73 | 1019.8 |
| 20260831133004 | 71 | 347 | 1.0 | 2.0 | 0.00 | 0.02 | 0.00 | 74 | 1019.8 |
| 20260831132503 | 71 | 19 | 1.0 | 3.0 | 0.00 | 0.02 | 0.00 | 75 | 1019.7 |
| 20260831132003 | 71 | 248 | 1.0 | 3.0 | 0.00 | 0.02 | 0.00 | 75 | 1019.8 |
| 20260831131503 | 70 | 192 | 1.0 | 5.0 | 0.00 | 0.02 | 0.00 | 76 | 1019.8 |
| 20260831131013 | 70 | 189 | 0.0 | 0.0 | 0.00 | 0.02 | 0.00 | 76 | 1019.7 |
| 20260831130508 | 70 | 190 | 0.0 | 2.0 | 0.00 | 0.02 | 0.00 | 77 | 1019.7 |
| 20260831130004 | 70 | 190 | 0.0 | 0.0 | 0.00 | 0.02 | 0.00 | 79 | 1019.8 |
| 20260831125503 | 70 | 190 | 0.0 | 2.0 | 0.00 | 0.02 | 0.00 | 78 | 1019.7 |
| 20260831125003 | 70 | 193 | 0.0 | 1.0 | 0.00 | 0.02 | 0.00 | 79 | 1019.8 |
| 20260831124503 | 70 | 189 | 1.0 | 3.0 | 0.00 | 0.02 | 0.00 | 81 | 1019.8 |
| 20260831124003 | 70 | 189 | 0.0 | 2.0 | 0.00 | 0.02 | 0.00 | 84 | 1019.7 |
| 20260831123504 | 70 | 190 | 0.0 | 0.0 | 0.00 | 0.02 | 0.00 | 86 | 1019.6 |
| 20260831122003 | 69 | 189 | 0.0 | 1.0 | 0.00 | 0.02 | 0.00 | 86 | 1019.7 |
| 20260831121503 | 69 | 189 | 1.0 | 2.0 | 0.00 | 0.02 | 0.00 | 86 | 1019.7 |
| 20260831121004 | 69 | 189 | 0.0 | 2.0 | 0.00 | 0.02 | 0.00 | 86 | 1019.7 |
| 20260831120504 | 69 | 189 | 0.0 | 0.0 | 0.00 | 0.02 | 0.00 | 87 | 1019.7 |
| 20260831120004 | 69 | 189 | 0.0 | 0.0 | 0.00 | 0.02 | 0.00 | 87 | 1019.7 |
| 20260831115504 | 69 | 189 | 0.0 | 0.0 | 0.00 | 0.02 | 0.00 | 87 | 1019.6 |
| 20260831115005 | 68 | 189 | 0.0 | 0.0 | 0.00 | 0.02 | 0.00 | 87 | 1019.6 |
| 20260831114504 | 68 | 189 | 0.0 | 1.0 | 0.00 | 0.02 | 0.00 | 86 | 1019.7 |
| 20260831114003 | 68 | 189 | 0.0 | 1.0 | 0.00 | 0.02 | 0.00 | 86 | 1019.7 |
| 20260831113503 | 68 | 190 | 0.0 | 0.0 | 0.00 | 0.02 | 0.00 | 86 | 1019.7 |
| 20260831113003 | 68 | 190 | 0.0 | 1.0 | 0.00 | 0.02 | 0.00 | 86 | 1019.6 |
| 20260831112503 | 68 | 190 | 0.0 | 1.0 | 0.00 | 0.02 | 0.00 | 86 | 1019.4 |
| 20260831112003 | 68 | 190 | 0.0 | 1.0 | 0.00 | 0.02 | 0.00 | 86 | 1019.3 |
| 20260831111503 | 68 | 190 | 0.0 | 1.0 | 0.00 | 0.02 | 0.00 | 86 | 1019.3 |
| 20260831111004 | 68 | 189 | 0.0 | 0.0 | 0.00 | 0.02 | 0.00 | 86 | 1019.2 |
| 20260831110504 | 68 | 189 | 0.0 | 0.0 | 0.00 | 0.02 | 0.00 | 86 | 1019.2 |
| 20260831110003 | 68 | 189 | 0.0 | 0.0 | 0.00 | 0.02 | 0.00 | 86 | 1019.1 |
| 20260831105503 | 68 | 189 | 0.0 | 0.0 | 0.00 | 0.02 | 0.00 | 86 | 1019.1 |
| 20260831105004 | 68 | 190 | 0.0 | 0.0 | 0.00 | 0.02 | 0.00 | 86 | 1019.1 |
| 20260831104503 | 68 | 190 | 0.0 | 0.0 | 0.00 | 0.02 | 0.00 | 86 | 1019.1 |
| 20260831103503 | 68 | 190 | 0.0 | 0.0 | 0.00 | 0.02 | 0.00 | 86 | 1018.9 |
| 20260831103004 | 68 | 190 | 0.0 | 0.0 | 0.00 | 0.02 | 0.00 | 86 | 1018.9 |
| 20260831102503 | 68 | 190 | 0.0 | 0.0 | 0.00 | 0.02 | 0.00 | 86 | 1018.8 |
| 20260831101004 | 68 | 190 | 0.0 | 0.0 | 0.00 | 0.02 | 0.00 | 86 | 1018.8 |
| 20260831100504 | 68 | 190 | 0.0 | 0.0 | 0.00 | 0.02 | 0.00 | 86 | 1018.7 |
| 20260831095503 | 68 | 189 | 0.0 | 1.0 | 0.00 | 0.02 | 0.00 | 86 | 1018.7 |
| 20260831095005 | 68 | 189 | 0.0 | 3.0 | 0.00 | 0.02 | 0.00 | 86 | 1018.6 |
| 20260831094505 | 69 | 190 | 0.0 | 0.0 | 0.00 | 0.02 | 0.00 | 86 | 1018.7 |
| 20260831094003 | 69 | 190 | 0.0 | 0.0 | 0.00 | 0.02 | 0.00 | 86 | 1018.6 |
| 20260831092503 | 69 | 188 | 0.0 | 0.0 | 0.00 | 0.02 | 0.00 | 86 | 1018.4 |
| 20260831092004 | 69 | 189 | 0.0 | 0.0 | 0.00 | 0.02 | 0.00 | 86 | 1018.4 |
| 20260831090503 | 69 | 190 | 0.0 | 1.0 | 0.00 | 0.02 | 0.00 | 86 | 1018.5 |
| 20260831090004 | 69 | 190 | 0.0 | 1.0 | 0.00 | 0.02 | 0.00 | 86 | 1018.4 |
| 20260831085503 | 69 | 191 | 0.0 | 1.0 | 0.00 | 0.02 | 0.00 | 86 | 1018.3 |
| 20260831085003 | 69 | 192 | 0.0 | 1.0 | 0.00 | 0.02 | 0.00 | 86 | 1018.4 |
| 20260831084004 | 70 | 191 | 0.0 | 1.0 | 0.00 | 0.02 | 0.00 | 86 | 1018.4 |
| 20260831083504 | 70 | 193 | 0.0 | 0.0 | 0.00 | 0.02 | 0.00 | 86 | 1018.5 |
| 20260831083004 | 70 | 193 | 0.0 | 0.0 | 0.00 | 0.02 | 0.00 | 87 | 1018.4 |
| 20260831082504 | 70 | 193 | 0.0 | 0.0 | 0.00 | 0.02 | 0.00 | 87 | 1018.4 |
| 20260831082004 | 70 | 194 | 0.0 | 0.0 | 0.00 | 0.02 | 0.00 | 87 | 1018.5 |
| 20260831081503 | 70 | 193 | 0.0 | 0.0 | 0.00 | 0.02 | 0.00 | 87 | 1018.4 |
| 20260831081005 | 70 | 193 | 0.0 | 0.0 | 0.00 | 0.02 | 0.00 | 87 | 1018.4 |
| 20260831080504 | 70 | 193 | 0.0 | 0.0 | 0.00 | 0.02 | 0.00 | 87 | 1018.3 |
| 20260831080004 | 70 | 193 | 0.0 | 0.0 | 0.00 | 0.02 | 0.00 | 86 | 1018.4 |
| 20260831075503 | 70 | 193 | 0.0 | 0.0 | 0.00 | 0.02 | 0.00 | 86 | 1018.4 |
| 20260831075003 | 70 | 194 | 0.0 | 0.0 | 0.00 | 0.02 | 0.00 | 86 | 1018.4 |
| 20260831074503 | 70 | 192 | 0.0 | 0.0 | 0.00 | 0.02 | 0.00 | 86 | 1018.3 |
| 20260831074004 | 70 | 192 | 0.0 | 0.0 | 0.00 | 0.02 | 0.00 | 86 | 1018.3 |
| 20260831073504 | 70 | 192 | 0.0 | 0.0 | 0.00 | 0.02 | 0.00 | 86 | 1018.4 |
| 20260831073004 | 70 | 192 | 0.0 | 0.0 | 0.00 | 0.02 | 0.00 | 86 | 1018.4 |
| 20260831072503 | 70 | 192 | 0.0 | 0.0 | 0.00 | 0.02 | 0.00 | 86 | 1018.3 |